Weather History for Cumberland, WI

Change the Weather History Date:

Thursday, April 3, 2014

  Actual Average (KRPD) Record (KRPD)
Temperature  
Mean Temperature 32 °F -  
Max Temperature 35 °F 45 °F 62 °F (2005)
Min Temperature 28 °F 27 °F 12 °F (2013)
Degree Days  
Heating Degree Days 34    
Moisture  
Dew Point 24 °F    
Average Humidity 74    
Maximum Humidity 100    
Minimum Humidity 56    
Precipitation  
Precipitation 0.06 in - - ()
Sea Level Pressure  
Sea Level Pressure 29.95 in    
Wind  
Wind Speed 10 mph (ENE)    
Max Wind Speed 18 mph    
Max Gust Speed 23 mph    
Visibility 7 miles    
Events Rain , Snow    
Averages and records for this station are not official NWS values.
T = Trace of Precipitation, MM = Missing Value Source: NWS Daily Summary

Daily Weather History Graph

Daily Weather History Graph

Search for Another Location

Airport:

Trip Planner

Search our weather history database for the weather conditions in past years. The results will help you decide how hot, cold, wet, or windy it might be!

Date:

Astronomy

Apr. 03, 2014 Rise Set
Actual Time 6:44 AM CDT 7:38 PM CDT
Civil Twilight 6:14 AM CDT 8:08 PM CDT
Nautical Twilight 5:38 AM CDT 8:44 PM CDT
Astronomical Twilight 5:00 AM CDT 9:22 PM CDT
Moon 9:04 AM CDT (4/3) No Moon Set
Length of Visible Light 13h 54m
Length of Day
12h 54m
Waxing Crescent, 17% of the Moon is Illuminated
Apr 3
Waxing Crescent
Apr 7
First Quarter
Apr 15
Full
Apr 22
Last Quarter
Apr 29
New

Hourly Weather History & Observations

Time (CDT) Temp. Windchill Dew Point Humidity Pressure Visibility Wind Dir Wind Speed Gust Speed Precip Events Conditions
12:35 AM 33.8 °F 30.8 °F 21.2 °F 60% 30.11 in 10.0 mi NE 3.5 mph - N/A   Overcast
12:55 AM 33.8 °F 27.0 °F 23.0 °F 65% 30.10 in 10.0 mi NE 8.1 mph - N/A   Overcast
1:15 AM 33.8 °F 25.8 °F 21.2 °F 60% 30.09 in 10.0 mi NE 10.4 mph - N/A   Overcast
1:35 AM 35.6 °F 28.0 °F 21.2 °F 56% 30.09 in 10.0 mi East 10.4 mph 17.3 mph N/A   Overcast
1:55 AM 33.8 °F 26.4 °F 23.0 °F 65% 30.09 in 10.0 mi ENE 9.2 mph - N/A   Overcast
2:15 AM 33.8 °F 27.0 °F 23.0 °F 65% 30.09 in 10.0 mi East 8.1 mph - N/A   Overcast
2:35 AM 33.8 °F 27.0 °F 21.2 °F 60% 30.09 in 10.0 mi East 8.1 mph - N/A   Overcast
2:55 AM 33.8 °F 24.3 °F 21.2 °F 60% 30.08 in 7.0 mi East 13.8 mph 17.3 mph N/A Snow Light Snow
3:15 AM 33.8 °F 24.3 °F 26.6 °F 75% 30.05 in 5.0 mi ENE 13.8 mph 19.6 mph N/A Snow Light Snow
3:35 AM 33.8 °F 26.4 °F 24.8 °F 70% 30.04 in 10.0 mi East 9.2 mph - N/A   Overcast
3:55 AM 33.8 °F 25.8 °F 23.0 °F 65% 30.03 in 10.0 mi East 10.4 mph - N/A   Overcast
4:15 AM 33.8 °F 26.4 °F 21.2 °F 60% 30.03 in 10.0 mi East 9.2 mph - N/A   Overcast
4:35 AM 33.8 °F 26.4 °F 21.2 °F 60% 30.03 in 10.0 mi East 9.2 mph - N/A   Overcast
4:55 AM 33.8 °F 25.8 °F 21.2 °F 60% 30.03 in 10.0 mi East 10.4 mph - N/A   Overcast
5:15 AM 33.8 °F 25.3 °F 21.2 °F 60% 30.02 in 10.0 mi East 11.5 mph - N/A   Overcast
5:35 AM 33.8 °F 28.6 °F 21.2 °F 60% 30.03 in 10.0 mi East 5.8 mph - N/A   Overcast
5:55 AM 33.8 °F 27.0 °F 21.2 °F 60% 30.03 in 10.0 mi ESE 8.1 mph - N/A   Overcast
6:15 AM 33.8 °F 27.0 °F 21.2 °F 60% 30.03 in 10.0 mi ESE 8.1 mph - N/A   Overcast
6:35 AM 33.8 °F 26.4 °F 21.2 °F 60% 30.03 in 10.0 mi SE 9.2 mph - N/A   Overcast
7:15 AM 32.0 °F 24.8 °F 21.2 °F 64% 30.03 in 10.0 mi ESE 8.1 mph - N/A   Overcast
7:35 AM 32.0 °F 25.6 °F 21.2 °F 64% 30.02 in 10.0 mi ESE 6.9 mph - N/A   Overcast
7:55 AM 32.0 °F 23.6 °F 21.2 °F 64% 30.02 in 10.0 mi East 10.4 mph - N/A   Overcast
8:15 AM 32.0 °F 23.6 °F 21.2 °F 64% 30.01 in 10.0 mi ESE 10.4 mph 19.6 mph N/A   Overcast
8:35 AM 32.0 °F 22.5 °F 21.2 °F 64% 30.01 in 10.0 mi East 12.7 mph 18.4 mph N/A   Overcast
8:55 AM 32.0 °F 22.1 °F 21.2 °F 64% 30.01 in 10.0 mi East 13.8 mph 20.7 mph N/A   Overcast
9:15 AM 32.0 °F 22.1 °F 21.2 °F 64% 30.01 in 10.0 mi East 13.8 mph - N/A   Overcast
9:35 AM 32.0 °F 24.2 °F 21.2 °F 64% 30.00 in 10.0 mi East 9.2 mph - N/A   Overcast
9:55 AM 32.0 °F 23.6 °F 21.2 °F 64% 30.00 in 10.0 mi East 10.4 mph - N/A   Overcast
10:15 AM 32.0 °F 22.5 °F 23.0 °F 69% 29.98 in 7.0 mi East 12.7 mph - N/A Snow Light Snow
10:35 AM 32.0 °F 23.0 °F 21.2 °F 64% 29.98 in 2.5 mi East 11.5 mph - N/A Snow Light Snow
10:55 AM 32.0 °F 21.6 °F 23.0 °F 69% 29.98 in 2.5 mi East 15.0 mph 21.9 mph N/A Snow Light Snow
11:15 AM 32.0 °F 21.2 °F 21.2 °F 64% 29.97 in 10.0 mi East 16.1 mph 19.6 mph N/A   Overcast
11:35 AM 32.0 °F 22.1 °F 21.2 °F 64% 29.97 in 10.0 mi East 13.8 mph - N/A   Overcast
11:55 AM 32.0 °F 21.6 °F 21.2 °F 64% 29.97 in 4.0 mi East 15.0 mph 18.4 mph N/A Snow Light Snow
12:15 PM 32.0 °F 23.6 °F 19.4 °F 60% 29.97 in 10.0 mi East 10.4 mph - N/A   Overcast
12:35 PM 32.0 °F 23.0 °F 21.2 °F 64% 29.97 in 7.0 mi East 11.5 mph - N/A Snow Light Snow
12:55 PM 32.0 °F 22.5 °F 21.2 °F 64% 29.95 in 5.0 mi ENE 12.7 mph 20.7 mph N/A Snow Light Snow
1:15 PM 32.0 °F 22.1 °F 24.8 °F 75% 29.94 in 10.0 mi ENE 13.8 mph 21.9 mph N/A Rain Light Rain
1:35 PM 32.0 °F 21.6 °F 26.6 °F 80% 29.93 in 10.0 mi NE 15.0 mph - N/A   Overcast
1:55 PM 32.0 °F 22.1 °F 24.8 °F 75% 29.93 in 10.0 mi ENE 13.8 mph 18.4 mph N/A Rain Light Rain
2:15 PM 32.0 °F 20.8 °F 24.8 °F 75% 29.89 in 10.0 mi NE 17.3 mph 23.0 mph N/A Rain Light Rain
2:35 PM 32.0 °F 20.5 °F 26.6 °F 80% 29.90 in 5.0 mi NE 18.4 mph 23.0 mph N/A Snow Light Snow
2:55 PM 32.0 °F 22.5 °F 26.6 °F 80% 29.90 in 10.0 mi NE 12.7 mph 19.6 mph N/A Snow Light Snow
3:15 PM 32.0 °F 22.1 °F 26.6 °F 80% 29.89 in 7.0 mi NE 13.8 mph - N/A Rain Light Rain
3:35 PM 32.0 °F 22.1 °F 26.6 °F 80% 29.88 in 4.0 mi NE 13.8 mph - N/A Snow Light Snow
3:55 PM 32.0 °F 22.5 °F 28.4 °F 87% 29.87 in 5.0 mi NE 12.7 mph 18.4 mph N/A Snow Light Snow
4:15 PM 32.0 °F 22.1 °F 28.4 °F 87% 29.85 in 4.0 mi NE 13.8 mph 19.6 mph N/A Snow Light Snow
4:35 PM 32.0 °F 22.5 °F 28.4 °F 87% 29.84 in 2.5 mi NE 12.7 mph - N/A Snow Light Snow
4:55 PM 32.0 °F 22.5 °F 28.4 °F 87% 29.85 in 10.0 mi ENE 12.7 mph - 0.01 in Rain Light Rain
5:15 PM 32.0 °F 21.6 °F 28.4 °F 87% 29.86 in 7.0 mi ENE 15.0 mph - N/A   Light Drizzle
5:55 PM 32.0 °F 22.1 °F 28.4 °F 87% 29.86 in 3.0 mi ENE 13.8 mph 18.4 mph N/A   Drizzle
6:15 PM 30.2 °F 22.6 °F 28.4 °F 93% 29.87 in 2.5 mi ENE 8.1 mph - N/A   Light Freezing Rain
6:35 PM 30.2 °F 21.3 °F 28.4 °F 93% 29.86 in 3.0 mi ENE 10.4 mph - N/A Rain Light Freezing Rain
6:55 PM 30.2 °F 22.6 °F 28.4 °F 93% 29.86 in 2.5 mi NE 8.1 mph - N/A Rain Light Freezing Rain
7:15 PM 30.2 °F 21.9 °F 28.4 °F 93% 29.86 in 1.8 mi NE 9.2 mph - 0.01 in Snow Light Snow
7:35 PM 30.2 °F 20.8 °F 30.2 °F 100% 29.85 in 3.0 mi NE 11.5 mph - 0.01 in Snow Snow
7:55 PM 30.2 °F 20.8 °F 28.4 °F 93% 29.84 in 3.0 mi NE 11.5 mph - 0.01 in Snow Light Snow
8:15 PM 30.2 °F 21.9 °F 30.2 °F 100% 29.85 in 1.0 mi NE 9.2 mph - 0.01 in Snow Snow
8:35 PM 30.2 °F 21.3 °F 30.2 °F 100% 29.85 in 1.0 mi NE 10.4 mph - 0.02 in Snow Snow
8:55 PM 30.2 °F 21.3 °F 30.2 °F 100% 29.85 in 1.8 mi NNE 10.4 mph 16.1 mph 0.02 in Snow Light Snow
9:15 PM 30.2 °F 20.2 °F 28.4 °F 93% 29.84 in 1.5 mi NE 12.7 mph - N/A Snow Light Snow
9:35 PM 30.2 °F 19.8 °F 28.4 °F 93% 29.81 in 1.2 mi NNE 13.8 mph - N/A Snow Light Snow
11:15 PM 28.4 °F 17.5 °F 28.4 °F 100% 29.77 in 1.2 mi NNE 13.8 mph - 0.01 in Snow Snow
11:35 PM 28.4 °F 18.5 °F 28.4 °F 100% 29.77 in 1.0 mi NNE 11.5 mph - 0.02 in Snow Light Snow
11:55 PM 28.4 °F 18.5 °F 28.4 °F 100% 29.76 in 4.0 mi NE 11.5 mph - 0.02 in Snow Light Snow